Wetbulb
66.61 65.63 64.29 63.35 61.93 61.25 60.57 59.03 57.90 58.09 57.93 58.59 58.81 59.21 59.71 59.98 60.89 62.12 62.40 63.96 66.61 67.66 66.94 66.45 66.01 65.51 65.09 64.50 63.83 63.19 62.69 62.31 61.82 61.55 61.43 61.87 62.04 62.11 62.09 62.12 62.40 62.06 62.52
66.36 65.47 64.27 62.98 62.00 61.52 60.04 58.95 58.08 58.59 59.42 59.94 59.76 58.19 59.47 60.28 60.78 61.49 61.83 62.61 65.30 66.82 67.35 66.92 66.63 66.29 65.91 65.43 64.88 64.14 63.51 63.15 62.62 62.05 61.40 60.91 61.17 61.16 61.25 61.60 61.66 61.70 61.74
66.28 65.24 63.90 62.67 62.14 61.57 60.23 59.35 59.14 59.51 58.99 57.56 57.17 57.99 59.14 59.84 60.45 60.91 61.28 61.68 63.22 64.13 66.50 67.26 67.30 67.25 66.97 66.84 66.56 65.93 65.36 64.83 64.26 63.65 62.98 62.27 61.63 61.31 61.29 61.05 60.94 60.87 60.64
66.18 64.77 63.42 62.16 62.25 61.89 61.00 59.58 59.09 58.37 57.33 56.81 56.08 55.89 57.61 59.05 59.77 60.06 60.84 61.18 61.84 63.02 64.03 66.45 67.65 67.85 67.78 67.65 67.56 67.44 67.14 66.60 65.76 65.24 64.68 64.21 63.55 62.76 62.20 62.03 61.49 61.09 60.57
65.88 64.72 63.61 62.57 62.33 61.88 60.97 60.36 57.53 57.24 56.21 57.22 56.88 56.70 56.75 55.93 57.12 60.29 59.83 60.14 60.73 61.77 61.76 62.89 63.47 64.43 65.65 66.49 66.90 66.76 66.41 65.64 65.72 65.52 65.51 65.36 65.02 64.72 64.23 63.53 62.79 62.26 61.50
65.55 65.00 63.71 62.68 62.33 61.59 60.06 58.55 56.82 56.98 57.51 58.72 59.65 58.75 58.02 57.91 57.94 57.50 56.84 58.98 59.59 60.61 60.56 60.31 59.93 60.19 62.41 64.32 64.88 65.98 66.10 65.68 65.15 64.54 64.43 64.54 63.75 64.08 64.26 64.28 64.14 63.53 62.96
64.91 64.52 63.59 62.55 61.97 61.23 60.14 59.15 56.47 57.77 58.03 59.08 57.78 57.18 57.75 58.24 57.79 57.72 58.55 58.41 58.69 58.97 59.90 59.95 59.87 59.11 60.44 63.10 63.63 64.17 64.85 65.03 64.90 64.57 63.58 63.31 63.88 63.88 63.67 63.47 63.62 63.24 63.70
65.18 64.38 63.27 62.27 61.70 61.20 59.23 58.13 57.68 58.22 58.97 59.48 57.53 56.48 54.79 56.37 57.23 57.77 57.84 58.27 57.59 58.09 57.51 57.38 58.43 58.34 57.34 56.83 57.78 59.94 61.59 62.81 63.20 63.36 63.32 63.24 63.43 63.53 63.74 63.72 63.28 63.47 63.27
65.45 64.59 63.72 62.98 61.67 61.43 59.48 58.36 58.56 59.38 58.30 58.84 58.99 57.20 53.05 52.73 54.87 56.28 56.01 56.22 56.13 55.85 55.03 55.35 55.75 55.85 55.24 54.90 55.93 55.99 58.33 60.13 62.07 62.45 63.56 63.56 63.62 63.58 63.35 63.08 62.58 62.79 62.58
65.23 64.55 63.58 62.83 61.89 61.40 59.64 58.88 59.56 60.31 60.17 59.41 58.63 59.63 58.03 56.47 53.71 53.24 54.92 54.66 55.10 54.79 53.95 53.80 53.46 53.86 53.58 52.75 54.36 55.47 56.76 58.48 60.19 61.12 61.86 62.96 63.77 63.70 62.73 62.48 62.32 61.71 61.33
65.04 64.29 63.59 62.51 61.43 61.17 60.02 59.33 59.70 60.86 61.23 60.18 58.56 58.10 57.08 56.79 56.01 53.38 51.43 52.98 54.18 53.67 53.30 52.84 52.32 51.66 51.47 50.95 50.75 53.21 55.64 57.25 58.71 60.16 61.19 62.11 62.87 63.51 62.53 62.26 61.14 60.52 60.03
64.18 64.18 63.88 62.92 61.51 60.96 59.84 60.04 60.76 61.24 61.08 60.47 59.50 59.23 57.94 56.34 55.34 54.30 52.23 51.66 52.58 52.37 52.23 51.61 50.94 50.36 50.18 50.07 52.66 53.56 54.77 55.72 57.05 58.41 60.49 61.43 61.83 62.55 62.31 61.21 59.97 59.13 59.27
62.85 63.28 63.00 62.09 61.01 61.02 60.98 61.29 61.24 61.11 60.79 60.72 60.57 59.87 59.09 58.29 57.54 56.13 54.24 52.42 51.46 50.93 50.30 51.25 50.30 49.83 50.67 49.06 49.86 51.43 53.09 55.16 55.44 57.60 60.58 61.56 61.37 61.32 60.18 59.25 58.37 58.51 58.15
62.44 62.43 62.14 61.90 61.28 61.35 61.61 61.79 61.64 61.44 61.34 60.90 60.29 60.05 59.15 58.84 58.79 57.13 55.58 52.48 49.84 49.14 48.38 48.32 51.40 49.05 48.67 48.88 50.66 51.93 50.08 54.29 54.24 55.98 56.32 57.78 57.13 56.53 56.42 56.36 55.91 55.66 55.61
62.11 61.54 61.40 61.24 61.46 61.55 61.68 61.67 61.33 60.77 61.27 60.69 60.46 60.11 58.93 58.91 58.78 58.27 56.94 54.43 52.15 47.33 47.31 47.49 47.46 47.55 47.78 47.93 49.12 48.63 49.24 52.64 53.67 54.63 54.95 54.57 54.27 54.14 54.08 53.91 53.92 54.16 54.54
61.60 61.20 61.02 61.29 61.43 61.53 61.54 61.46 61.03 60.62 60.60 59.88 59.97 59.47 58.13 57.18 57.58 57.50 56.79 55.26 53.54 50.75 46.58 46.81 46.75 46.46 46.99 48.05 48.49 47.26 48.26 50.27 51.67 53.06 53.88 53.28 52.88 52.79 52.62 52.68 52.67 52.95 53.58
61.17 61.31 61.15 61.12 61.17 60.93 61.13 61.08 60.51 59.69 60.12 59.40 59.12 59.44 57.62 56.83 56.69 55.71 55.42 53.63 52.55 50.77 46.34 43.91 44.89 45.13 44.98 44.95 44.89 44.94 45.07 44.14 44.94 49.81 51.91 52.41 52.11 51.81 51.84 51.53 51.27 51.33 51.84
61.12 61.44 61.29 60.92 60.72 60.54 60.65 60.62 59.82 59.72 59.52 58.95 58.99 58.53 56.87 55.28 54.69 54.43 53.71 52.35 51.07 50.02 47.31 44.04 43.62 43.09 43.24 42.42 41.83 41.60 44.27 44.96 42.92 46.30 48.82 50.17 51.46 51.21 51.42 50.05 49.73 49.61 50.17
60.44 59.78 60.35 60.42 60.54 60.45 60.35 60.64 59.81 59.38 59.18 59.06 58.66 58.17 56.36 54.74 53.88 51.99 52.22 51.01 49.63 48.59 47.22 43.74 41.63 41.29 41.04 40.30 39.47 40.01 40.35 40.78 43.07 45.15 46.24 47.49 49.06 50.74 51.29 49.55 48.79 47.87 48.62
59.97 60.24 60.06 59.78 59.91 59.74 59.84 59.47 58.84 58.68 58.39 58.10 57.64 57.49 56.02 54.63 53.69 51.82 50.39 50.01 48.66 47.71 45.69 43.73 41.32 40.28 40.35 39.71 39.46 39.34 38.65 39.65 38.67 40.91 42.29 44.68 46.67 48.25 50.40 49.13 47.37 46.31 47.39
58.49 58.34 57.77 57.72 57.88 58.09 58.53 58.59 58.29 58.29 57.76 57.14 56.43 56.04 55.10 53.31 51.27 51.80 50.72 48.78 47.40 46.02 44.56 43.13 40.97 39.65 38.77 37.71 37.60 38.00 36.50 36.54 36.04 35.55 36.15 37.81 40.44 43.17 45.14 47.49 45.38 45.37 45.57
53.48 56.43 56.07 56.12 55.93 54.85 52.75 53.40 55.94 56.92 56.44 56.07 55.06 53.97 53.51 48.50 49.52 50.64 50.08 49.18 48.64 46.27 43.95 41.09 38.25 38.48 37.10 37.38 37.24 36.74 35.63 35.00 32.85 34.52 34.29 35.22 37.13 39.70 42.01 43.13 45.01 44.95 44.42
48.07 47.37 47.71 48.45 48.07 48.78 49.93 51.07 51.59 53.16 53.55 53.97 53.48 50.38 46.55 47.28 48.29 49.20 49.15 48.48 47.67 47.64 44.79 41.95 39.60 38.97 37.93 38.65 37.48 34.83 34.46 34.48 35.64 36.52 36.22 33.40 33.42 34.10 38.44 41.27 44.27 44.97 44.34
46.23 45.97 45.58 45.81 45.50 46.21 47.47 47.58 47.26 46.24 45.54 44.96 45.39 45.65 46.08 44.72 45.45 45.51 44.24 41.95 42.02 42.54 41.44 40.46 39.80 39.02 38.54 38.17 37.85 36.73 35.91 34.95 35.66 35.58 36.30 33.80 32.61 32.81 34.08 36.52 42.01 43.87 43.69
44.10 44.08 44.75 44.74 44.43 44.49 45.50 45.73 45.03 44.08 43.35 42.66 43.33 43.46 43.46 42.72 44.95 44.48 40.91 38.50 38.28 38.58 41.71 41.46 40.23 40.63 41.02 40.67 38.41 36.30 34.14 33.49 32.66 33.71 33.87 34.23 32.54 32.79 32.64 32.02 34.63 41.12 43.40
42.06 42.67 42.41 43.16 44.55 43.48 45.48 45.26 44.09 43.30 41.96 41.60 41.86 42.18 43.43 42.33 44.79 44.39 39.46 38.56 36.57 36.83 37.16 36.44 36.19 38.08 38.56 39.01 40.99 36.75 35.00 33.21 33.12 32.79 33.63 33.40 31.51 31.66 32.87 31.71 32.36 34.39 35.99
MSLP
1016.55 1017.09 1018.05 1018.47 1018.79 1019.25 1019.57 1019.82 1020.13 1020.46 1020.78 1020.99 1021.22 1021.49 1021.76 1021.99 1022.10 1022.08 1022.08 1022.02 1021.98 1022.02 1022.15 1022.32 1022.32 1022.45 1022.40 1022.47 1022.57 1022.60 1022.54 1022.54 1022.49 1022.55 1022.56 1022.54 1022.53 1022.45 1022.40 1022.32 1022.27 1022.24 1022.19
1016.25 1016.65 1017.44 1018.29 1018.67 1018.95 1019.44 1019.72 1019.96 1020.40 1020.72 1020.96 1021.14 1021.33 1021.57 1021.90 1022.08 1022.04 1022.09 1022.11 1022.09 1022.11 1022.09 1022.21 1022.33 1022.36 1022.34 1022.46 1022.53 1022.59 1022.66 1022.62 1022.52 1022.55 1022.59 1022.65 1022.69 1022.55 1022.53 1022.59 1022.54 1022.48 1022.43
1015.87 1016.53 1017.01 1017.80 1018.29 1018.68 1019.29 1019.79 1020.11 1020.42 1020.73 1020.86 1021.11 1021.18 1021.52 1021.77 1021.97 1022.05 1022.10 1022.16 1022.10 1022.16 1022.21 1022.15 1022.18 1022.28 1022.29 1022.32 1022.36 1022.44 1022.52 1022.54 1022.52 1022.48 1022.57 1022.65 1022.64 1022.51 1022.53 1022.54 1022.42 1022.38 1022.57
1015.91 1016.50 1016.96 1017.30 1017.93 1018.50 1018.96 1019.55 1020.12 1020.49 1020.73 1020.93 1021.08 1021.25 1021.44 1021.69 1021.81 1021.94 1022.07 1022.16 1022.17 1022.21 1022.23 1022.22 1022.14 1022.16 1022.18 1022.15 1022.21 1022.10 1022.14 1022.23 1022.26 1022.35 1022.42 1022.47 1022.45 1022.50 1022.54 1022.38 1022.58 1022.51 1022.53
1015.60 1016.08 1016.62 1016.72 1017.38 1018.05 1018.65 1019.24 1019.92 1020.27 1020.68 1020.96 1021.22 1021.44 1021.44 1021.58 1021.61 1021.75 1022.05 1022.08 1022.18 1022.25 1022.28 1022.25 1022.19 1022.26 1022.24 1022.23 1022.21 1022.02 1021.95 1021.92 1022.10 1022.17 1022.27 1022.34 1022.35 1022.39 1022.39 1022.40 1022.39 1022.43 1022.47
1015.10 1015.50 1016.32 1016.73 1016.98 1017.73 1018.47 1019.01 1019.49 1020.15 1020.39 1020.74 1021.11 1021.44 1021.61 1021.59 1021.65 1021.72 1021.83 1021.86 1021.98 1022.11 1022.23 1022.32 1022.25 1022.16 1022.18 1022.22 1022.36 1022.16 1022.09 1022.20 1022.23 1022.29 1022.28 1022.43 1022.51 1022.30 1022.12 1022.04 1022.09 1022.12 1021.90
1014.43 1014.86 1015.61 1016.50 1016.81 1017.17 1017.79 1018.61 1019.23 1019.83 1020.35 1020.51 1021.20 1021.88 1021.86 1021.94 1021.88 1021.88 1021.82 1021.94 1021.92 1022.16 1022.25 1022.36 1022.33 1022.22 1022.31 1022.48 1022.58 1022.47 1022.33 1022.29 1022.35 1022.41 1022.31 1022.32 1022.21 1022.25 1022.13 1021.96 1021.76 1021.67 1021.59
1014.03 1014.56 1014.85 1015.80 1016.34 1016.87 1017.50 1018.18 1018.66 1019.47 1019.93 1020.15 1020.81 1021.67 1022.15 1022.30 1022.14 1022.13 1022.02 1022.14 1022.10 1022.27 1022.34 1022.53 1022.55 1022.43 1022.45 1022.66 1022.71 1022.59 1022.55 1022.49 1022.57 1022.52 1022.43 1022.46 1022.28 1022.16 1022.05 1021.88 1021.67 1021.54 1021.56
1013.45 1013.91 1014.43 1014.97 1015.80 1016.64 1016.88 1017.54 1018.11 1018.46 1019.18 1019.91 1019.95 1020.61 1021.78 1021.86 1022.08 1022.25 1022.32 1022.38 1022.41 1022.43 1022.45 1022.58 1022.69 1022.54 1022.62 1022.73 1022.86 1022.95 1022.84 1022.79 1022.75 1022.63 1022.44 1022.15 1022.00 1021.91 1021.86 1021.69 1021.76 1021.70 1021.66
1012.83 1013.42 1013.94 1014.37 1014.96 1016.40 1016.56 1017.03 1017.52 1017.84 1018.29 1019.28 1019.99 1020.09 1020.34 1020.78 1021.58 1022.39 1022.48 1022.56 1022.52 1022.50 1022.68 1022.83 1022.89 1022.61 1022.71 1022.94 1023.01 1022.97 1023.06 1022.93 1022.76 1022.68 1022.51 1022.25 1021.87 1021.69 1021.61 1021.65 1021.69 1021.92 1021.98
1011.85 1012.58 1013.20 1013.99 1014.80 1015.64 1015.97 1016.58 1017.15 1017.40 1017.74 1018.57 1019.10 1019.90 1020.38 1020.71 1020.92 1021.53 1022.29 1022.56 1022.61 1022.51 1022.73 1022.71 1023.07 1022.93 1022.75 1023.13 1023.20 1023.16 1022.99 1022.92 1022.68 1022.59 1022.45 1022.11 1021.84 1021.46 1021.53 1021.57 1021.84 1021.83 1021.73
1011.22 1012.00 1012.94 1013.78 1014.55 1014.93 1015.37 1016.04 1016.59 1016.84 1017.29 1017.87 1018.55 1019.02 1019.51 1020.09 1020.54 1020.97 1021.74 1022.20 1022.38 1022.71 1022.89 1023.01 1023.08 1023.10 1023.01 1023.22 1023.27 1023.16 1023.03 1022.89 1022.81 1022.50 1022.12 1021.80 1021.66 1021.46 1021.49 1021.57 1021.78 1021.84 1021.87
1010.01 1011.05 1012.23 1013.07 1013.95 1014.25 1014.62 1015.54 1016.06 1016.42 1016.94 1017.40 1017.93 1018.46 1018.80 1019.11 1019.58 1020.16 1020.80 1021.51 1022.17 1022.73 1023.01 1023.23 1023.19 1023.11 1023.08 1023.12 1023.19 1023.11 1023.06 1022.95 1022.77 1022.61 1021.87 1021.58 1021.34 1021.46 1021.72 1021.74 1021.86 1022.03 1021.93
1008.74 1010.16 1011.48 1012.44 1012.99 1013.41 1014.06 1014.85 1015.40 1015.89 1016.39 1017.03 1017.56 1017.97 1018.43 1018.73 1019.15 1019.45 1019.86 1020.80 1021.96 1022.65 1022.69 1022.96 1022.97 1023.17 1022.99 1022.99 1023.16 1023.03 1022.94 1022.89 1022.75 1022.62 1022.47 1022.37 1022.19 1022.11 1022.07 1022.10 1022.37 1022.28 1022.02
1008.31 1009.61 1010.49 1011.57 1012.48 1012.79 1013.43 1014.20 1014.87 1015.38 1015.90 1016.45 1017.02 1017.50 1017.89 1018.43 1018.87 1019.03 1019.04 1019.75 1020.53 1022.17 1022.08 1022.73 1023.05 1022.96 1023.13 1023.15 1023.21 1023.23 1023.08 1022.89 1022.76 1022.63 1022.57 1022.60 1022.56 1022.47 1022.35 1022.34 1022.44 1022.47 1022.29
1007.98 1009.19 1010.12 1011.18 1011.79 1011.98 1012.84 1013.64 1014.36 1014.99 1015.48 1016.11 1016.61 1017.17 1017.77 1018.16 1018.43 1018.73 1018.91 1019.52 1020.10 1020.73 1020.51 1021.98 1022.74 1022.52 1022.91 1023.26 1023.28 1023.16 1022.93 1022.88 1022.94 1022.76 1022.78 1022.76 1022.82 1022.77 1022.59 1022.62 1022.45 1022.36 1022.28
1007.71 1008.87 1009.82 1010.52 1011.13 1011.36 1012.24 1013.12 1013.87 1014.51 1015.09 1015.72 1016.32 1016.90 1017.53 1017.78 1018.19 1018.44 1018.52 1019.57 1020.14 1020.33 1020.33 1021.86 1022.51 1022.38 1022.55 1023.04 1023.15 1023.12 1022.93 1023.35 1023.03 1022.80 1022.69 1022.72 1022.61 1022.59 1022.48 1022.52 1022.84 1022.52 1022.13
1007.86 1008.87 1009.57 1009.96 1010.26 1011.27 1011.98 1012.65 1013.27 1013.97 1014.56 1015.15 1015.98 1016.52 1017.15 1017.79 1018.17 1018.14 1018.30 1019.00 1019.87 1019.88 1019.94 1021.89 1022.47 1022.53 1022.51 1022.76 1023.05 1023.13 1023.23 1023.00 1022.91 1022.81 1022.87 1022.89 1022.78 1022.57 1022.50 1022.49 1022.43 1022.62 1022.57
1007.95 1008.70 1009.37 1009.71 1010.37 1011.04 1011.81 1012.38 1012.91 1013.57 1013.94 1014.33 1015.56 1015.97 1016.60 1017.14 1017.75 1018.19 1018.65 1018.22 1019.06 1019.31 1018.78 1021.30 1022.30 1022.39 1022.24 1022.88 1023.25 1023.37 1023.40 1023.04 1022.99 1022.88 1022.83 1022.62 1022.43 1022.32 1022.17 1022.22 1022.36 1022.57 1022.37
1007.91 1008.62 1009.21 1009.74 1010.32 1011.14 1011.79 1012.29 1012.85 1013.33 1013.97 1014.31 1014.76 1015.54 1016.08 1016.39 1017.06 1017.54 1018.31 1018.51 1018.53 1019.51 1019.45 1019.73 1021.60 1022.04 1022.29 1022.79 1023.23 1023.61 1023.41 1022.82 1022.89 1022.76 1022.74 1022.48 1022.40 1022.34 1021.80 1021.99 1022.10 1022.18 1022.33
1008.54 1009.27 1009.73 1010.11 1010.65 1011.28 1011.82 1012.32 1012.93 1013.15 1013.50 1013.80 1014.43 1015.10 1015.09 1015.24 1015.85 1016.83 1017.56 1018.00 1018.41 1019.15 1019.64 1019.87 1021.33 1022.20 1021.94 1022.49 1022.86 1022.86 1023.08 1023.01 1022.77 1022.67 1022.41 1022.34 1022.00 1022.01 1021.96 1021.76 1022.13 1022.02 1022.01
1009.43 1009.49 1010.19 1010.57 1011.15 1011.79 1012.15 1012.49 1012.83 1013.04 1013.14 1013.60 1014.20 1014.60 1014.89 1015.09 1015.45 1015.98 1016.83 1017.03 1017.06 1018.23 1018.87 1019.60 1020.69 1021.32 1021.50 1021.68 1022.02 1022.36 1022.50 1022.81 1022.97 1022.79 1022.48 1022.36 1022.32 1022.05 1021.96 1021.76 1021.73 1021.96 1022.16
1010.60 1011.09 1011.15 1011.33 1012.11 1012.32 1012.58 1012.74 1012.87 1012.97 1013.30 1013.21 1013.67 1014.10 1014.66 1015.20 1015.36 1015.69 1015.98 1016.25 1017.27 1017.55 1018.03 1018.94 1019.76 1019.86 1020.52 1020.67 1021.17 1021.53 1021.86 1022.21 1022.34 1022.65 1022.43 1022.44 1022.34 1022.38 1021.91 1021.70 1021.80 1021.79 1021.80
1011.20 1011.70 1012.21 1012.68 1013.02 1013.32 1013.19 1013.29 1013.14 1013.38 1013.19 1013.81 1013.87 1014.07 1014.50 1015.00 1015.35 1016.03 1016.54 1016.43 1017.70 1018.01 1018.20 1018.84 1018.98 1019.25 1019.58 1020.00 1020.51 1021.00 1021.55 1021.94 1022.24 1022.27 1022.46 1022.33 1022.35 1022.16 1022.03 1021.75 1021.64 1021.61 1021.88
1012.48 1012.59 1012.80 1012.87 1012.78 1013.19 1013.22 1013.64 1013.60 1013.86 1014.46 1014.77 1014.83 1014.91 1015.30 1015.43 1015.97 1016.59 1017.18 1017.62 1018.39 1018.35 1018.39 1018.88 1018.91 1019.32 1019.49 1019.79 1020.41 1021.18 1021.82 1022.16 1022.36 1022.32 1022.61 1022.37 1022.42 1022.18 1021.89 1022.05 1022.02 1021.40 1021.42
1014.04 1014.14 1014.27 1014.04 1013.88 1014.17 1014.08 1013.49 1014.01 1014.44 1014.52 1015.15 1015.38 1015.61 1015.53 1016.03 1016.53 1016.82 1017.26 1017.79 1018.57 1018.57 1019.22 1019.43 1018.92 1019.26 1019.58 1019.54 1019.74 1020.59 1021.51 1022.14 1022.17 1022.26 1022.19 1022.59 1022.43 1022.45 1022.19 1022.14 1022.49 1022.41 1022.09
Wind_Speed
10 9 6 5 4 4 4 4 5 4 5 5 4 5 5 5 4 3 2 6 6 6 6 5 5 4 4 4 3 3 3 2 2 2 0 1 2 4 5 6 8 10 11
10 9 9 6 5 5 4 4 5 5 4 4 4 5 6 5 5 5 3 3 6 7 6 6 5 5 5 5 5 5 5 5 4 3 2 2 2 2 3 5 6 8 8
14 12 10 8 7 5 6 4 4 3 2 2 4 5 5 6 5 5 4 3 4 6 7 7 7 7 7 7 8 7 8 8 7 6 5 5 5 4 4 4 3 4 5
13 11 9 9 8 6 6 4 4 3 3 4 3 3 4 4 6 5 4 4 3 3 4 8 8 9 9 9 9 9 9 11 11 9 8 7 7 6 6 7 5 4 3
14 11 9 9 10 8 7 7 3 3 3 3 4 4 4 4 5 3 5 5 5 4 2 4 5 7 8 8 8 8 7 4 2 4 7 9 8 9 9 9 7 7 6
14 12 9 9 10 8 6 4 5 2 3 4 3 3 2 2 2 3 4 3 4 4 3 3 2 3 4 4 5 6 7 5 6 5 5 6 7 7 8 7 9 10 9
15 14 10 10 10 10 10 9 4 6 2 3 4 2 2 2 2 1 1 2 2 3 3 3 2 1 3 9 8 7 6 5 4 5 5 5 6 6 6 6 6 5 9
15 13 13 12 12 9 8 9 6 4 3 5 4 3 2 2 1 1 2 1 3 2 3 2 2 4 4 3 4 5 5 4 4 4 4 5 5 5 7 8 7 7 7
15 16 14 12 12 10 9 11 9 9 5 3 4 5 2 4 2 0 1 0 1 1 2 2 2 3 3 3 2 4 6 5 4 4 6 6 6 6 6 5 3 6 8
11 13 14 14 13 9 10 10 9 8 6 8 1 1 1 4 4 2 0 1 1 1 1 1 2 3 3 3 4 3 4 4 4 5 6 8 9 8 3 3 5 6 7
16 16 11 9 10 10 10 11 10 9 8 6 4 3 2 2 2 3 3 2 1 1 0 2 1 2 3 2 2 3 3 5 5 6 8 9 9 9 3 6 4 5 6
14 17 17 12 13 12 11 10 11 10 8 6 4 4 4 4 4 3 3 2 3 1 2 2 0 1 3 2 2 2 3 4 6 6 8 8 7 7 5 5 3 3 7
13 16 18 17 13 13 12 11 10 9 9 8 10 6 3 4 4 3 4 2 3 2 2 1 1 1 2 2 2 3 4 4 5 7 8 7 6 5 6 4 3 7 8
15 18 16 16 16 15 13 12 9 8 8 7 9 7 4 4 4 4 4 5 2 2 2 3 1 1 2 2 2 2 0 2 2 5 5 6 7 5 5 6 6 7 8
15 17 17 17 18 16 14 12 9 9 9 8 8 7 4 4 4 4 3 4 5 5 5 3 3 3 2 2 3 2 2 2 2 4 4 5 5 5 5 6 7 8 9
12 15 17 17 15 14 13 12 8 8 9 6 6 7 5 4 4 4 3 3 3 4 4 4 4 4 4 3 3 2 2 4 4 5 4 4 6 7 7 7 6 7 7
11 12 15 15 14 13 12 12 10 10 11 9 6 7 7 6 5 5 4 3 3 3 4 1 2 3 4 4 2 1 1 2 3 6 6 5 4 5 5 4 6 6 6
12 15 13 13 12 11 12 12 12 11 12 11 10 9 8 4 6 5 7 7 4 2 5 5 4 4 4 3 2 2 3 2 2 4 6 7 6 5 4 1 2 5 8
10 8 9 9 10 10 11 11 11 12 13 12 10 10 10 10 8 5 5 7 6 5 6 4 4 0 1 1 1 2 2 2 2 5 6 6 6 7 5 3 2 4 6
9 7 6 8 9 10 10 10 11 11 11 10 11 12 12 13 12 11 9 8 6 5 3 5 3 2 3 2 1 2 2 1 2 2 4 4 5 7 7 5 4 3 5
6 6 6 5 5 5 6 8 9 10 11 11 10 12 13 15 15 13 9 9 7 4 3 5 3 3 3 3 4 3 1 1 2 1 1 2 1 1 1 4 4 3 3
7 7 6 6 5 3 3 7 7 8 10 12 12 11 9 11 14 18 14 15 14 10 8 4 4 4 4 5 4 4 3 1 2 2 1 3 1 2 3 2 4 3 2
10 9 9 9 8 7 9 6 5 3 7 10 11 9 6 5 8 9 14 15 10 9 5 7 6 5 5 7 6 5 4 3 2 0 1 2 0 2 3 3 6 5 4
8 6 7 7 7 6 11 9 9 4 5 4 4 2 2 4 3 5 5 7 5 5 5 4 5 5 4 5 4 4 4 3 1 2 3 2 1 2 2 2 7 6 5
7 6 5 5 7 6 11 9 7 5 5 4 3 5 4 5 7 8 5 5 4 2 4 6 7 7 8 9 7 4 2 2 2 2 3 1 1 2 1 2 3 7 8
6 5 6 6 7 4 6 10 7 2 5 3 3 3 6 6 8 11 7 8 6 5 5 4 5 6 5 7 10 5 4 3 2 1 3 3 0 1 3 2 3 3 2
Wind_Direction
163 151 154 155 151 148 165 160 154 152 141 145 159 172 176 178 185 178 194 191 182 175 173 171 165 170 166 172 180 185 198 198 167 133 137 45 10 26 16 18 25 25 25
167 167 162 168 167 163 169 167 164 158 164 169 195 179 181 174 192 189 197 209 202 202 198 199 201 206 205 210 213 219 233 237 230 229 233 254 297 336 328 354 14 17 14
172 173 169 170 176 165 157 152 153 137 164 172 178 177 169 185 194 202 201 207 220 223 224 225 226 235 236 237 237 234 239 243 243 241 244 253 260 267 285 294 318 357 4
174 172 172 172 171 166 165 163 158 159 182 170 156 169 174 182 202 207 203 215 221 223 243 251 263 256 259 266 279 280 264 240 234 238 243 252 256 264 273 274 287 299 327
179 172 180 173 169 168 175 175 158 149 155 174 167 166 180 190 201 186 216 219 228 231 235 264 285 295 307 323 328 341 350 343 333 267 259 262 270 275 275 274 277 276 282
183 174 178 180 170 169 174 166 151 158 157 169 143 138 131 158 173 196 218 216 227 227 231 271 285 296 275 284 358 13 29 74 76 64 68 36 6 338 334 292 279 268 264
188 182 178 182 181 178 182 181 146 158 146 149 104 39 19 7 130 135 108 124 106 107 102 63 45 59 49 63 51 44 42 49 60 43 34 346 343 342 337 348 343 300 270
187 190 180 186 186 180 166 174 162 144 138 171 139 114 176 319 14 119 110 134 119 110 99 65 69 79 84 83 81 59 40 32 2 1 3 344 348 333 336 332 339 358 2
192 194 191 188 182 192 180 179 180 170 150 182 181 143 140 215 142 258 136 107 160 123 132 119 104 92 94 98 74 48 38 28 7 359 347 335 329 304 330 360 39 53 38
193 188 193 184 182 192 184 187 184 182 143 177 172 178 104 144 167 175 309 203 213 200 169 106 114 104 97 84 74 58 31 14 10 335 318 332 319 326 352 107 71 43 30
184 179 180 190 190 190 188 184 181 169 177 160 162 145 132 87 95 133 173 211 291 283 235 114 177 144 116 107 68 30 15 4 352 327 316 310 307 308 261 124 75 38 19
188 190 190 189 203 195 179 184 187 177 169 163 160 161 164 163 181 153 128 173 163 157 62 33 102 79 88 92 85 64 27 18 355 336 320 298 293 302 192 116 71 1 3
187 188 184 187 197 192 179 182 183 177 175 178 180 185 163 178 152 143 131 148 143 173 142 34 35 109 122 123 158 76 21 16 352 337 348 24 37 90 91 72 29 356 6
180 174 182 190 193 185 179 182 182 179 172 174 178 180 180 173 192 167 154 144 113 203 156 169 145 176 163 140 157 98 325 334 328 340 343 21 60 55 54 39 18 8 1
181 175 174 192 188 180 174 173 176 175 175 173 185 176 159 190 198 178 168 151 152 188 207 205 173 196 181 166 222 221 223 268 341 330 322 348 360 4 9 14 14 5 2
163 171 177 188 187 170 168 171 169 169 168 174 173 169 195 177 185 171 165 165 214 191 139 136 221 169 179 192 255 273 318 352 323 322 349 339 337 348 355 7 15 14 360
158 170 182 184 183 168 166 171 170 168 175 171 162 174 207 174 186 177 132 169 195 211 107 203 227 183 163 185 238 297 21 303 335 335 329 314 324 340 339 5 11 9 356
172 181 183 177 164 171 173 175 171 175 178 176 179 176 194 172 194 189 170 180 187 202 115 176 196 200 176 195 221 259 270 275 313 320 319 320 316 307 294 54 39 9 11
158 159 171 165 168 173 179 182 181 191 184 176 185 192 187 179 190 183 221 181 181 187 137 147 182 166 146 132 209 280 273 309 318 312 307 305 308 298 240 167 108 33 25
143 156 172 168 163 180 182 185 188 187 192 189 178 197 198 184 193 192 197 204 175 192 124 107 161 168 145 154 114 207 272 223 300 345 328 296 299 300 262 166 122 74 39
128 147 144 151 152 177 184 181 194 192 191 186 193 207 199 191 194 198 190 188 155 156 157 144 141 192 166 151 195 189 191 228 242 228 271 260 231 246 275 138 131 117 80
46 113 117 127 133 131 141 207 203 193 193 193 205 207 212 196 191 188 188 180 171 175 181 158 161 191 179 187 169 179 170 139 259 247 26 309 14 250 228 196 181 150 105
59 53 48 58 56 46 43 29 290 231 212 201 206 196 176 195 194 189 174 165 178 170 136 158 180 183 177 182 160 174 185 174 202 180 39 273 93 279 241 210 216 208 191
79 86 82 89 83 65 63 69 77 62 81 42 66 65 143 129 130 143 128 97 130 139 132 172 186 184 179 157 156 157 160 151 354 259 192 237 244 258 321 267 228 218 212
62 56 51 72 103 93 83 74 73 74 49 54 66 92 115 109 130 133 115 122 145 146 158 170 155 160 154 148 141 107 126 118 229 238 218 189 267 291 328 314 291 232 220
52 44 42 43 63 62 73 95 94 105 98 88 76 85 125 147 186 173 162 159 182 192 174 160 135 139 143 166 172 168 156 185 171 217 204 197 238 347 340 32 338 327 337